| time (UTC) | temp C | wind direction | speed KPH | gust KPH | rain 1hr cm | rain 24hr cm | rain mn cm | humidity % | barometer mb |
| 20260508235415 | 28 | 47 | 0.0 | 6.4 | 0.00 | 0.00 | 0.00 | 12 | 1017.9 |
| 20260508234515 | 28 | 35 | 1.6 | 8.0 | 0.00 | 0.00 | 0.00 | 12 | 1017.9 |
| 20260508233615 | 28 | 15 | 4.8 | 17.7 | 0.00 | 0.00 | 0.00 | 11 | 1017.9 |
| 20260508232715 | 28 | 11 | 1.6 | 14.5 | 0.00 | 0.00 | 0.00 | 12 | 1017.9 |
| 20260508231836 | 29 | 14 | 3.2 | 14.5 | 0.00 | 0.00 | 0.00 | 11 | 1017.9 |
| 20260508230915 | 29 | 16 | 4.8 | 16.1 | 0.00 | 0.00 | 0.00 | 11 | 1017.9 |
| 20260508230015 | 29 | 326 | 1.6 | 9.7 | 0.00 | 0.00 | 0.00 | 11 | 1017.9 |
| 20260508225415 | 29 | 8 | 1.6 | 9.7 | 0.00 | 0.00 | 0.00 | 10 | 1017.9 |
| 20260508224536 | 29 | 348 | 1.6 | 9.7 | 0.00 | 0.00 | 0.00 | 11 | 1017.9 |
| 20260508223615 | 28 | 354 | 1.6 | 12.9 | 0.00 | 0.00 | 0.00 | 11 | 1017.9 |
| 20260508222703 | 28 | 305 | 3.2 | 17.7 | 0.00 | 0.00 | 0.00 | 11 | 1017.9 |
| 20260508221815 | 28 | 271 | 1.6 | 12.9 | 0.00 | 0.00 | 0.00 | 11 | 1017.9 |
| 20260508220915 | 28 | 326 | 3.2 | 19.3 | 0.00 | 0.00 | 0.00 | 11 | 1017.9 |
| 20260508220015 | 28 | 346 | 8.0 | 22.5 | 0.00 | 0.00 | 0.00 | 11 | 1017.9 |
| 20260508215424 | 27 | 357 | 9.7 | 22.5 | 0.00 | 0.00 | 0.00 | 12 | 1017.9 |
| 20260508214515 | 26 | 354 | 4.8 | 20.9 | 0.00 | 0.00 | 0.00 | 13 | 1017.9 |
| 20260508213615 | 26 | 346 | 1.6 | 11.3 | 0.00 | 0.00 | 0.00 | 13 | 1017.9 |
| 20260508212715 | 25 | 279 | 1.6 | 16.1 | 0.00 | 0.00 | 0.00 | 13 | 1017.9 |
| 20260508211815 | 25 | 309 | 3.2 | 16.1 | 0.00 | 0.00 | 0.00 | 13 | 1017.9 |
| 20260508210915 | 26 | 331 | 4.8 | 19.3 | 0.00 | 0.00 | 0.00 | 13 | 1017.9 |
| 20260508210015 | 26 | 287 | 3.2 | 14.5 | 0.00 | 0.00 | 0.00 | 13 | 1017.9 |
| 20260508205415 | 27 | 308 | 4.8 | 14.5 | 0.00 | 0.00 | 0.00 | 13 | 1017.9 |
| 20260508204503 | 27 | 360 | 6.4 | 17.7 | 0.00 | 0.00 | 0.00 | 12 | 1017.9 |
| 20260508203636 | 28 | 10 | 6.4 | 22.5 | 0.00 | 0.00 | 0.00 | 12 | 1017.9 |
| 20260508202715 | 27 | 333 | 4.8 | 22.5 | 0.00 | 0.00 | 0.00 | 12 | 1017.9 |
| 20260508201815 | 27 | 24 | 8.0 | 20.9 | 0.00 | 0.00 | 0.00 | 15 | 1017.9 |
| 20260508200936 | 27 | 35 | 8.0 | 20.9 | 0.00 | 0.00 | 0.00 | 14 | 1017.9 |
| 20260508200036 | 27 | 20 | 8.0 | 19.3 | 0.00 | 0.00 | 0.00 | 15 | 1017.9 |
| 20260508195403 | 27 | 11 | 8.0 | 20.9 | 0.00 | 0.00 | 0.00 | 15 | 1017.9 |
| 20260508194515 | 26 | 8 | 6.4 | 22.5 | 0.00 | 0.00 | 0.00 | 15 | 1017.9 |
| 20260508193615 | 26 | 54 | 6.4 | 16.1 | 0.00 | 0.00 | 0.00 | 17 | 1017.9 |
| 20260508192715 | 27 | 19 | 6.4 | 17.7 | 0.00 | 0.00 | 0.00 | 16 | 1017.9 |
| 20260508191815 | 26 | 9 | 6.4 | 19.3 | 0.00 | 0.00 | 0.00 | 17 | 1017.9 |
| 20260508190936 | 26 | 32 | 8.0 | 19.3 | 0.00 | 0.00 | 0.00 | 18 | 1017.9 |
| 20260508190015 | 25 | 18 | 3.2 | 12.9 | 0.00 | 0.00 | 0.00 | 20 | 1017.9 |
| 20260508185415 | 25 | 12 | 4.8 | 12.9 | 0.00 | 0.00 | 0.00 | 20 | 1017.9 |
| 20260508184515 | 25 | 51 | 4.8 | 9.7 | 0.00 | 0.00 | 0.00 | 22 | 1017.9 |
| 20260508183615 | 24 | 54 | 4.8 | 9.7 | 0.00 | 0.00 | 0.00 | 23 | 1017.9 |
| 20260508182736 | 23 | 39 | 3.2 | 9.7 | 0.00 | 0.00 | 0.00 | 23 | 1017.9 |
| 20260508181815 | 24 | 13 | 4.8 | 14.5 | 0.00 | 0.00 | 0.00 | 21 | 1017.9 |
| 20260508180915 | 25 | 31 | 6.4 | 14.5 | 0.00 | 0.00 | 0.00 | 22 | 1017.9 |
| 20260508180036 | 24 | 18 | 4.8 | 12.9 | 0.00 | 0.00 | 0.00 | 22 | 1017.9 |
| 20260508175415 | 23 | 29 | 4.8 | 12.9 | 0.00 | 0.00 | 0.00 | 22 | 1017.9 |
| 20260508174515 | 23 | 37 | 3.2 | 12.9 | 0.00 | 0.00 | 0.00 | 21 | 1017.9 |
| 20260508173615 | 23 | 39 | 3.2 | 12.9 | 0.00 | 0.00 | 0.00 | 21 | 1017.9 |
| 20260508172715 | 23 | 61 | 3.2 | 12.9 | 0.00 | 0.00 | 0.00 | 22 | 1017.9 |
| 20260508171815 | 23 | 61 | 4.8 | 14.5 | 0.00 | 0.00 | 0.00 | 22 | 1017.9 |
| 20260508170915 | 22 | 63 | 4.8 | 14.5 | 0.00 | 0.00 | 0.00 | 22 | 1017.9 |
| 20260508170015 | 22 | 66 | 3.2 | 12.9 | 0.00 | 0.00 | 0.00 | 21 | 1017.9 |
| 20260508165415 | 22 | 69 | 1.6 | 12.9 | 0.00 | 0.00 | 0.00 | 24 | 1017.9 |
| 20260508164515 | 21 | 71 | 3.2 | 9.7 | 0.00 | 0.00 | 0.00 | 23 | 1017.9 |
| 20260508163603 | 21 | 71 | 1.6 | 9.7 | 0.00 | 0.00 | 0.00 | 26 | 1017.9 |
| 20260508162703 | 21 | 71 | 1.6 | 9.7 | 0.00 | 0.00 | 0.00 | 27 | 1017.9 |
| 20260508161815 | 20 | 71 | 0.0 | 6.4 | 0.00 | 0.00 | 0.00 | 28 | 1017.9 |
| 20260508160915 | 20 | 69 | 1.6 | 8.0 | 0.00 | 0.00 | 0.00 | 28 | 1017.9 |
| 20260508160015 | 19 | 68 | 1.6 | 6.4 | 0.00 | 0.00 | 0.00 | 29 | 1017.9 |
| 20260508155415 | 19 | 68 | 1.6 | 6.4 | 0.00 | 0.00 | 0.00 | 30 | 1017.9 |
| 20260508154515 | 18 | 68 | 3.2 | 8.0 | 0.00 | 0.00 | 0.00 | 30 | 1017.9 |
| 20260508153636 | 18 | 70 | 4.8 | 12.9 | 0.00 | 0.00 | 0.00 | 31 | 1017.9 |
| 20260508152715 | 17 | 72 | 3.2 | 11.3 | 0.00 | 0.00 | 0.00 | 31 | 1017.9 |
| 20260508151815 | 17 | 118 | 1.6 | 12.9 | 0.00 | 0.00 | 0.00 | 32 | 1017.9 |
| 20260508150915 | 17 | 105 | 3.2 | 9.7 | 0.00 | 0.00 | 0.00 | 32 | 1017.9 |
| 20260508150003 | 17 | 66 | 6.4 | 17.7 | 0.00 | 0.00 | 0.00 | 33 | 1017.9 |
| 20260508145403 | 17 | 62 | 3.2 | 9.7 | 0.00 | 0.00 | 0.00 | 34 | 1017.9 |
| 20260508144536 | 16 | 48 | 6.4 | 16.1 | 0.00 | 0.00 | 0.00 | 34 | 1017.9 |
| 20260508143603 | 16 | 50 | 6.4 | 14.5 | 0.00 | 0.00 | 0.00 | 35 | 1017.9 |
| 20260508142715 | 16 | 49 | 3.2 | 14.5 | 0.00 | 0.00 | 0.00 | 36 | 1017.9 |
| 20260508141803 | 15 | 180 | 0.0 | 9.7 | 0.00 | 0.00 | 0.00 | 38 | 1017.9 |
| 20260508140915 | 14 | 60 | 0.0 | 4.8 | 0.00 | 0.00 | 0.00 | 39 | 1017.9 |
| 20260508140015 | 14 | 60 | 3.2 | 8.0 | 0.00 | 0.00 | 0.00 | 43 | 1017.9 |
| 20260508135415 | 13 | 60 | 3.2 | 8.0 | 0.00 | 0.00 | 0.00 | 43 | 1017.9 |
| 20260508134515 | 13 | 48 | 4.8 | 11.3 | 0.00 | 0.00 | 0.00 | 41 | 1017.9 |
| 20260508133615 | 14 | 292 | 0.0 | 4.8 | 0.00 | 0.00 | 0.00 | 40 | 1017.9 |
| 20260508132715 | 13 | 0 | 0.0 | 0.0 | 0.00 | 0.00 | 0.00 | 42 | 1017.9 |
| 20260508131815 | 13 | 0 | 0.0 | 0.0 | 0.00 | 0.00 | 0.00 | 43 | 1017.9 |
| 20260508130903 | 12 | 0 | 0.0 | 0.0 | 0.00 | 0.00 | 0.00 | 45 | 1017.9 |
| 20260508130015 | 11 | 0 | 0.0 | 0.0 | 0.00 | 0.00 | 0.00 | 44 | 1017.9 |
| 20260508125424 | 11 | 0 | 0.0 | 0.0 | 0.00 | 0.00 | 0.00 | 44 | 1017.9 |
| 20260508124503 | 10 | 284 | 0.0 | 3.2 | 0.00 | 0.00 | 0.00 | 45 | 1017.9 |
| 20260508123603 | 9 | 0 | 0.0 | 0.0 | 0.00 | 0.00 | 0.00 | 47 | 1017.9 |
| 20260508122715 | 8 | 0 | 0.0 | 0.0 | 0.00 | 0.00 | 0.00 | 49 | 1017.9 |
| 20260508121815 | 8 | 0 | 0.0 | 0.0 | 0.00 | 0.00 | 0.00 | 50 | 1017.9 |
| 20260508120903 | 8 | 284 | 0.0 | 3.2 | 0.00 | 0.00 | 0.00 | 49 | 1017.9 |
| 20260508120036 | 8 | 0 | 0.0 | 0.0 | 0.00 | 0.00 | 0.00 | 52 | 1017.9 |
| 20260508115403 | 8 | 0 | 0.0 | 0.0 | 0.00 | 0.00 | 0.00 | 56 | 1017.9 |
| 20260508114515 | 8 | 0 | 0.0 | 0.0 | 0.00 | 0.00 | 0.00 | 57 | 1017.9 |
| 20260508113603 | 8 | 0 | 0.0 | 0.0 | 0.00 | 0.00 | 0.00 | 56 | 1017.9 |
| 20260508112703 | 8 | 0 | 0.0 | 0.0 | 0.00 | 0.00 | 0.00 | 56 | 1017.9 |
| 20260508111803 | 9 | 0 | 0.0 | 0.0 | 0.00 | 0.00 | 0.00 | 57 | 1017.9 |
| 20260508110915 | 9 | 0 | 0.0 | 0.0 | 0.00 | 0.00 | 0.00 | 54 | 1017.9 |
| 20260508110015 | 9 | 0 | 0.0 | 0.0 | 0.00 | 0.00 | 0.00 | 48 | 1017.9 |
| 20260508105424 | 10 | 0 | 0.0 | 0.0 | 0.00 | 0.00 | 0.00 | 48 | 1017.9 |
| 20260508104503 | 10 | 0 | 0.0 | 0.0 | 0.00 | 0.00 | 0.00 | 47 | 1017.9 |
| 20260508103615 | 10 | 0 | 0.0 | 0.0 | 0.00 | 0.00 | 0.00 | 46 | 1017.9 |
| 20260508102703 | 11 | 0 | 0.0 | 0.0 | 0.00 | 0.00 | 0.00 | 45 | 1017.9 |
| 20260508101815 | 11 | 0 | 0.0 | 0.0 | 0.00 | 0.00 | 0.00 | 44 | 1017.9 |
| 20260508100903 | 11 | 0 | 0.0 | 0.0 | 0.00 | 0.00 | 0.00 | 42 | 1017.9 |
| 20260508100015 | 11 | 284 | 0.0 | 1.6 | 0.00 | 0.00 | 0.00 | 44 | 1017.9 |
| 20260508095415 | 11 | 0 | 0.0 | 0.0 | 0.00 | 0.00 | 0.00 | 44 | 1017.9 |
| 20260508094515 | 11 | 0 | 0.0 | 0.0 | 0.00 | 0.00 | 0.00 | 42 | 1017.9 |
| 20260508093615 | 11 | 0 | 0.0 | 0.0 | 0.00 | 0.00 | 0.00 | 42 | 1017.9 |
| 20260508092736 | 11 | 0 | 0.0 | 0.0 | 0.00 | 0.00 | 0.00 | 43 | 1017.9 |
| 20260508091815 | 11 | 0 | 0.0 | 0.0 | 0.00 | 0.00 | 0.00 | 43 | 1017.9 |
| 20260508090924 | 11 | 0 | 0.0 | 0.0 | 0.00 | 0.00 | 0.00 | 42 | 1017.9 |
| 20260508090015 | 12 | 0 | 0.0 | 0.0 | 0.00 | 0.00 | 0.00 | 41 | 1017.9 |
| 20260508085415 | 12 | 0 | 0.0 | 0.0 | 0.00 | 0.00 | 0.00 | 40 | 1017.9 |
| 20260508084515 | 12 | 0 | 0.0 | 0.0 | 0.00 | 0.00 | 0.00 | 39 | 1017.9 |
| 20260508083615 | 12 | 0 | 0.0 | 0.0 | 0.00 | 0.00 | 0.00 | 37 | 1017.9 |
| 20260508082715 | 13 | 0 | 0.0 | 0.0 | 0.00 | 0.00 | 0.00 | 34 | 1017.9 |
| 20260508081803 | 13 | 0 | 0.0 | 0.0 | 0.00 | 0.00 | 0.00 | 33 | 1017.9 |
| 20260508080915 | 13 | 286 | 0.0 | 4.8 | 0.00 | 0.00 | 0.00 | 33 | 1017.9 |
| 20260508080036 | 13 | 286 | 0.0 | 4.8 | 0.00 | 0.00 | 0.00 | 32 | 1017.9 |
| 20260508075415 | 13 | 0 | 0.0 | 0.0 | 0.00 | 0.00 | 0.00 | 33 | 1017.9 |
| 20260508074515 | 14 | 0 | 0.0 | 0.0 | 0.00 | 0.00 | 0.00 | 32 | 1017.9 |
| 20260508073615 | 14 | 294 | 1.6 | 6.4 | 0.00 | 0.00 | 0.00 | 32 | 1017.9 |
| 20260508072703 | 14 | 0 | 0.0 | 0.0 | 0.00 | 0.00 | 0.00 | 33 | 1017.9 |
| 20260508071836 | 15 | 0 | 0.0 | 0.0 | 0.00 | 0.00 | 0.00 | 32 | 1017.9 |
| 20260508070915 | 15 | 0 | 0.0 | 0.0 | 0.00 | 0.00 | 0.00 | 30 | 1017.9 |
| 20260508070003 | 16 | 300 | 0.0 | 6.4 | 0.00 | 0.00 | 0.00 | 30 | 1017.9 |
| 20260508065436 | 16 | 301 | 0.0 | 6.4 | 0.00 | 0.00 | 0.00 | 28 | 1017.9 |
| 20260508064503 | 15 | 305 | 0.0 | 3.2 | 0.00 | 0.00 | 0.00 | 29 | 1017.9 |
| 20260508063636 | 16 | 0 | 0.0 | 0.0 | 0.00 | 0.00 | 0.00 | 30 | 1017.9 |
| 20260508062715 | 16 | 330 | 0.0 | 6.4 | 0.00 | 0.00 | 0.00 | 30 | 1017.9 |
| 20260508061815 | 17 | 348 | 1.6 | 11.3 | 0.00 | 0.00 | 0.00 | 30 | 1017.9 |
| 20260508060924 | 17 | 288 | 1.6 | 11.3 | 0.00 | 0.00 | 0.00 | 27 | 1017.9 |
| 20260508060003 | 18 | 233 | 1.6 | 8.0 | 0.00 | 0.00 | 0.00 | 25 | 1017.9 |
| 20260508055415 | 18 | 240 | 4.8 | 16.1 | 0.00 | 0.00 | 0.00 | 24 | 1017.9 |
| 20260508054503 | 18 | 249 | 6.4 | 14.5 | 0.00 | 0.00 | 0.00 | 24 | 1017.9 |
| 20260508053615 | 18 | 245 | 4.8 | 12.9 | 0.00 | 0.00 | 0.00 | 24 | 1017.9 |
| 20260508052715 | 18 | 238 | 1.6 | 8.0 | 0.00 | 0.00 | 0.00 | 24 | 1017.9 |
| 20260508051803 | 18 | 239 | 1.6 | 16.1 | 0.00 | 0.00 | 0.00 | 24 | 1017.9 |
| 20260508050915 | 18 | 237 | 3.2 | 14.5 | 0.00 | 0.00 | 0.00 | 24 | 1017.9 |
| 20260508050015 | 18 | 234 | 3.2 | 14.5 | 0.00 | 0.00 | 0.00 | 24 | 1017.9 |
| 20260508045415 | 18 | 222 | 1.6 | 11.3 | 0.00 | 0.00 | 0.00 | 25 | 1017.9 |
| 20260508044515 | 18 | 213 | 3.2 | 9.7 | 0.00 | 0.00 | 0.00 | 25 | 1017.9 |
| 20260508043615 | 18 | 213 | 1.6 | 6.4 | 0.00 | 0.00 | 0.00 | 25 | 1017.9 |
| 20260508042736 | 18 | 213 | 1.6 | 8.0 | 0.00 | 0.00 | 0.00 | 25 | 1017.9 |
| 20260508041824 | 18 | 0 | 0.0 | 0.0 | 0.00 | 0.00 | 0.00 | 26 | 1017.9 |
| 20260508040915 | 18 | 212 | 0.0 | 3.2 | 0.00 | 0.00 | 0.00 | 25 | 1017.9 |
| 20260508040015 | 18 | 212 | 0.0 | 3.2 | 0.00 | 0.00 | 0.00 | 25 | 1017.9 |
| 20260508035403 | 18 | 0 | 0.0 | 0.0 | 0.00 | 0.00 | 0.00 | 25 | 1017.9 |
| 20260508034524 | 18 | 213 | 0.0 | 6.4 | 0.00 | 0.00 | 0.00 | 25 | 1017.9 |
| 20260508033636 | 18 | 0 | 0.0 | 0.0 | 0.00 | 0.00 | 0.00 | 26 | 1017.9 |
| 20260508032702 | 18 | 0 | 0.0 | 0.0 | 0.00 | 0.00 | 0.00 | 26 | 1017.9 |
| 20260508031803 | 18 | 0 | 0.0 | 0.0 | 0.00 | 0.00 | 0.00 | 27 | 1017.9 |
| 20260508030915 | 18 | 0 | 0.0 | 0.0 | 0.00 | 0.00 | 0.00 | 27 | 1017.9 |
| 20260508030024 | 18 | 0 | 0.0 | 0.0 | 0.00 | 0.00 | 0.00 | 27 | 1017.9 |
| 20260508025415 | 18 | 0 | 0.0 | 0.0 | 0.00 | 0.00 | 0.00 | 27 | 1017.9 |
| 20260508024515 | 19 | 0 | 0.0 | 0.0 | 0.00 | 0.00 | 0.00 | 25 | 1017.9 |
| 20260508023603 | 20 | 0 | 0.0 | 0.0 | 0.00 | 0.00 | 0.00 | 25 | 1017.9 |
| 20260508022703 | 20 | 0 | 0.0 | 0.0 | 0.00 | 0.00 | 0.00 | 24 | 1017.9 |
| 20260508021815 | 20 | 212 | 0.0 | 3.2 | 0.00 | 0.00 | 0.00 | 23 | 1017.9 |
| 20260508020915 | 20 | 213 | 0.0 | 4.8 | 0.00 | 0.00 | 0.00 | 23 | 1017.9 |
| 20260508020015 | 20 | 0 | 0.0 | 0.0 | 0.00 | 0.00 | 0.00 | 23 | 1017.9 |
| 20260508015415 | 20 | 0 | 0.0 | 0.0 | 0.00 | 0.00 | 0.00 | 23 | 1017.9 |
| 20260508014515 | 20 | 0 | 0.0 | 1.6 | 0.00 | 0.00 | 0.00 | 23 | 1017.9 |
| 20260508013615 | 20 | 160 | 0.0 | 8.0 | 0.00 | 0.00 | 0.00 | 23 | 1017.9 |
| 20260508012715 | 20 | 44 | 1.6 | 6.4 | 0.00 | 0.00 | 0.00 | 23 | 1017.9 |
| 20260508011803 | 21 | 44 | 1.6 | 8.0 | 0.00 | 0.00 | 0.00 | 22 | 1017.9 |
| 20260508010936 | 21 | 42 | 0.0 | 6.4 | 0.00 | 0.00 | 0.00 | 22 | 1017.9 |
| 20260508010003 | 21 | 41 | 1.6 | 8.0 | 0.00 | 0.00 | 0.00 | 21 | 1017.9 |
| 20260508005436 | 21 | 41 | 1.6 | 8.0 | 0.00 | 0.00 | 0.00 | 21 | 1017.9 |
| 20260508004515 | 22 | 40 | 0.0 | 6.4 | 0.00 | 0.00 | 0.00 | 20 | 1017.9 |
| 20260508003615 | 22 | 40 | 1.6 | 6.4 | 0.00 | 0.00 | 0.00 | 20 | 1017.9 |
| 20260508002736 | 23 | 40 | 1.6 | 6.4 | 0.00 | 0.00 | 0.00 | 20 | 1017.9 |
| 20260508001803 | 23 | 40 | 1.6 | 6.4 | 0.00 | 0.00 | 0.00 | 19 | 1017.9 |
| 20260508000903 | 23 | 40 | 0.0 | 6.4 | 0.00 | 0.00 | 0.00 | 19 | 1017.9 |
| 20260508000003 | 23 | 40 | 1.6 | 8.0 | 0.00 | 0.00 | 0.00 | 18 | 1017.9 |